OK2ARM-12 Weather Reports


Display with metric or nautical units.
time (UTC)temp
F
wind
direction
speed
MPH
gust
MPH
rain 1hr
in
rain 24hr
in
rain mn
in
humidity
%
barometer
mb
20260905181817 62 0.0 0.0 0.00 0.00 0.00 54 1021.4
20260905174330 64 0.0 0.0 0.00 0.00 0.00 53 1020.9
20260905173330 64 0.0 0.0 0.00 0.00 0.00 52 1020.8
20260905171106 65 0.0 0.0 0.00 0.00 0.00 49 1020.6
20260905170107 66 0.0 0.0 0.00 0.00 0.00 48 1020.5
20260905163843 66 0.0 0.0 0.00 0.00 0.00 46 1020.3
20260905162843 66 0.0 0.0 0.00 0.00 0.00 46 1020.3
20260905161843 66 0.0 0.0 0.00 0.00 0.00 49 1020.3
20260905160843 65 0.0 0.0 0.00 0.00 0.00 50 1020.0
20260905155843 65 0.0 0.0 0.00 0.00 0.00 50 1020.0
20260905153619 67 0.0 0.0 0.00 0.00 0.00 47 1019.9
20260905152620 66 0.0 0.0 0.00 0.00 0.00 46 1020.1
20260905151619 67 0.0 0.0 0.00 0.00 0.00 45 1020.0
20260905150619 66 0.0 0.0 0.00 0.00 0.00 46 1020.0
20260905145619 66 0.0 0.0 0.00 0.00 0.00 44 1019.9
20260905144619 66 0.0 0.0 0.00 0.00 0.00 45 1020.0
20260905143619 65 0.0 0.0 0.00 0.00 0.00 47 1019.9
20260905142619 65 0.0 0.0 0.00 0.00 0.00 46 1020.1
20260905141619 65 0.0 0.0 0.00 0.00 0.00 44 1020.1
20260905140619 67 0.0 0.0 0.00 0.00 0.00 45 1020.2
20260905135619 65 0.0 0.0 0.00 0.00 0.00 48 1020.4
20260905133355 65 0.0 0.0 0.00 0.00 0.00 48 1020.4
20260905131132 67 0.0 0.0 0.00 0.00 0.00 44 1020.4
20260905130132 65 0.0 0.0 0.00 0.00 0.00 46 1020.4
20260905125132 67 0.0 0.0 0.00 0.00 0.00 46 1020.5
20260905124132 68 0.0 0.0 0.00 0.00 0.00 44 1020.4
20260905123131 67 0.0 0.0 0.00 0.00 0.00 47 1020.4
20260905120908 66 0.0 0.0 0.00 0.00 0.00 45 1020.5
20260905114648 65 0.0 0.0 0.00 0.00 0.00 50 1020.6
20260905113645 63 0.0 0.0 0.00 0.00 0.00 48 1020.7
20260905112645 65 0.0 0.0 0.00 0.00 0.00 49 1020.7
20260905111644 64 0.0 0.0 0.00 0.00 0.00 52 1020.6
20260905105421 62 0.0 0.0 0.00 0.00 0.00 54 1020.5
20260905104421 64 0.0 0.0 0.00 0.00 0.00 54 1020.3
20260905102157 62 0.0 0.0 0.00 0.00 0.00 58 1020.6
20260905095934 62 0.0 0.0 0.00 0.00 0.00 62 1020.7
20260905093706 60 0.0 0.0 0.00 0.00 0.00 65 1020.8
20260905091443 60 0.0 0.0 0.00 0.00 0.00 68 1020.8
20260905090443 59 0.0 0.0 0.00 0.00 0.00 70 1020.8
20260905082955 57 0.0 0.0 0.00 0.00 0.00 81 1020.7
20260905081955 56 0.0 0.0 0.00 0.00 0.00 84 1020.9
20260905080955 56 0.0 0.0 0.00 0.00 0.00 85 1020.6
20260905075955 56 0.0 0.0 0.00 0.00 0.00 84 1020.4
20260905074955 55 0.0 0.0 0.00 0.00 0.00 85 1020.2
20260905073955 55 0.0 0.0 0.00 0.00 0.00 86 1020.1
20260905072955 54 0.0 0.0 0.00 0.00 0.00 87 1019.8
20260905071955 54 0.0 0.0 0.00 0.00 0.00 89 1019.6
20260905070955 54 0.0 0.0 0.00 0.00 0.00 90 1019.2
20260905065955 53 0.0 0.0 0.00 0.00 0.00 91 1019.5
20260905064955 53 0.0 0.0 0.00 0.00 0.00 91 1019.7
20260905063955 53 0.0 0.0 0.00 0.00 0.00 91 1019.6
20260905062955 53 0.0 0.0 0.00 0.00 0.00 91 1019.8
20260905061955 53 0.0 0.0 0.00 0.00 0.00 91 1019.6
20260905060955 53 0.0 0.0 0.00 0.00 0.00 90 1019.7
20260905055955 53 0.0 0.0 0.00 0.00 0.00 90 1019.4
20260905052506 53 0.0 0.0 0.00 0.00 0.00 86 1019.9
20260905050241 55 0.0 0.0 0.00 0.00 0.00 85 1019.1
20260905045242 55 0.0 0.0 0.00 0.00 0.00 86 1019.1
20260905044242 55 0.0 0.0 0.00 0.00 0.00 87 1019.0
20260905043242 55 0.0 0.0 0.00 0.00 0.00 87 1018.8
20260905042242 55 0.0 0.0 0.00 0.00 0.00 87 1018.9
20260905041242 55 0.0 0.0 0.00 0.00 0.00 88 1018.5
20260905040242 55 0.0 0.0 0.00 0.00 0.00 88 1018.2
20260905035242 55 0.0 0.0 0.00 0.00 0.00 89 1018.1
20260905034242 56 0.0 0.0 0.00 0.00 0.00 88 1018.1
20260905033242 56 0.0 0.0 0.00 0.00 0.00 88 1018.1
20260905032242 56 0.0 0.0 0.00 0.00 0.00 88 1017.5
20260905030018 57 0.0 0.0 0.00 0.00 0.00 84 1018.0
20260905025018 58 0.0 0.0 0.00 0.00 0.00 84 1017.8
20260905024018 58 0.0 0.0 0.00 0.00 0.00 82 1017.4
20260905023018 58 0.0 0.0 0.00 0.00 0.00 81 1016.9
20260905022018 58 0.0 0.0 0.00 0.00 0.00 79 1016.7
20260905021018 59 0.0 0.0 0.00 0.00 0.00 75 1016.9
20260905020018 60 0.0 0.0 0.00 0.00 0.00 72 1016.9
20260905015018 60 0.0 0.0 0.00 0.00 0.00 71 1016.4
20260905012753 61 0.0 0.0 0.00 0.00 0.00 68 1016.5
20260905011753 61 0.0 0.0 0.00 0.00 0.00 67 1016.6
20260905010753 62 0.0 0.0 0.00 0.00 0.00 67 1016.4
20260905005753 62 0.0 0.0 0.00 0.00 0.00 68 1016.5
20260905004754 62 0.0 0.0 0.00 0.00 0.00 68 1016.3
20260905003754 63 0.0 0.0 0.00 0.00 0.00 67 1016.2
20260905002754 64 0.0 0.0 0.00 0.00 0.00 63 1015.3
20260905001755 67 0.0 0.0 0.00 0.00 0.00 58 1014.7
20260905000754 70 0.0 0.0 0.00 0.00 0.00 54 1013.9
20260904235754 70 0.0 0.0 0.00 0.00 0.00 53 1013.6
20260904234753 70 0.0 0.0 0.00 0.00 0.00 52 1013.7
20260904233754 70 0.0 0.0 0.00 0.00 0.00 52 1013.6
20260904232753 71 0.0 0.0 0.00 0.00 0.00 51 1013.6
20260904231754 71 0.0 0.0 0.00 0.00 0.00 50 1013.6
20260904225530 71 0.0 0.0 0.00 0.00 0.00 49 1013.4
20260904224530 71 0.0 0.0 0.00 0.00 0.00 49 1013.4
20260904223529 71 0.0 0.0 0.00 0.00 0.00 49 1013.4
20260904222530 71 0.0 0.0 0.00 0.00 0.00 49 1013.5
20260904221530 71 0.0 0.0 0.00 0.00 0.00 49 1013.6
20260904220530 71 0.0 0.0 0.00 0.00 0.00 49 1013.4
20260904213043 71 0.0 0.0 0.00 0.00 0.00 48 1013.3
20260904210819 71 0.0 0.0 0.00 0.00 0.00 49 1013.5
20260904205820 71 0.0 0.0 0.00 0.00 0.00 49 1013.4
20260904201109 72 0.0 0.0 0.00 0.00 0.00 47 1013.5
20260904200109 72 0.0 0.0 0.00 0.00 0.00 46 1013.6
20260904195109 73 0.0 0.0 0.00 0.00 0.00 45 1013.8
20260904194109 73 0.0 0.0 0.00 0.00 0.00 45 1014.0
20260904193108 73 0.0 0.0 0.00 0.00 0.00 45 1014.0
20260904192109 74 0.0 0.0 0.00 0.00 0.00 44 1014.0
20260904185844 74 0.0 0.0 0.00 0.00 0.00 43 1014.1
20260904184844 75 0.0 0.0 0.00 0.00 0.00 42 1014.0
20260904183844 75 0.0 0.0 0.00 0.00 0.00 42 1013.9
20260904182844 75 0.0 0.0 0.00 0.00 0.00 42 1013.8